Find Starlink 1012

NORAD ID: 44718 Int'l Des: 2019-074 Owner: SPXS Country: US Constellation: starlink operational
LEOCIRCULAR

实时位置

正在加载3D地球...

关于 Starlink 1012

正在加载描述...

即将过境

Passes for default location (London). Set your location on the main map for personalized predictions.

高度历史

Loading altitude history...

两行轨道根数

1 44718U 19074F 26120.97792935 .00084965 00000-0 16770-2 0 9992
2 44718 53.1582 294.2317 0000259 53.1391 306.9641 15.46464376356892
Epoch: Apr 30, 2026 • Age: 10 hours

当前状态

高度 428.4 km
速度 7.66 km/s
星下点 -3.23°S, 111.78°E
发射日期 Nov 11, 2019
运行时间 6.4 years
类型 internet

技术详情

分类 Payload
质量 260.00 kg
干质量 248.00 kg
总质量 260.00 kg
长度 0.20 m
直径 2.80 m
跨度 9.00 m
形状 Box + pan
制造商 SPXS
平台类型 Starlink
阶段状态 In Orbit
所有者/国家 SPXS/US

Most Searched